EW2441 Weather Reports


Display with metric or nautical units.
time (UTC)temp
F
wind
direction
speed
MPH
gust
MPH
rain 1hr
in
rain 24hr
in
rain mn
in
humidity
%
barometer
mb
20260508044504 43 245 0.0 2.0 0.00 0.00 0.00 74 1012.9
20260508041504 42 234 0.0 2.0 0.00 0.00 0.00 78 1012.7
20260508040006 39 231 1.0 6.0 0.00 0.00 0.00 82 1012.9
20260508034505 39 0 0.0 0.0 0.00 0.00 0.00 85 1012.9
20260508033005 39 0 0.0 0.0 0.00 0.00 0.00 83 1012.8
20260508031504 39 0 0.0 0.0 0.00 0.00 0.00 82 1012.7
20260508030005 40 0 0.0 0.0 0.00 0.00 0.00 80 1012.8
20260508024505 41 0 0.0 0.0 0.00 0.00 0.00 78 1012.9
20260508021504 42 0 0.0 0.0 0.00 0.00 0.00 71 1012.7
20260508020005 43 0 0.0 0.0 0.00 0.00 0.00 68 1012.7
20260508014505 44 0 0.0 0.0 0.00 0.00 0.00 63 1012.6
20260508013005 46 246 0.0 1.0 0.00 0.00 0.00 60 1012.6
20260508011505 47 0 0.0 0.0 0.00 0.00 0.00 56 1012.6
20260508010005 49 0 0.0 0.0 0.00 0.00 0.00 54 1012.4
20260508004504 50 0 0.0 0.0 0.00 0.00 0.00 51 1012.4
20260508003006 51 268 1.0 6.0 0.00 0.00 0.00 45 1012.3
20260508001504 52 286 2.0 7.0 0.00 0.00 0.00 44 1012.2
20260508000005 52 281 2.0 8.0 0.00 0.00 0.00 43 1011.9
20260507234504 53 290 3.0 9.0 0.00 0.00 0.00 42 1011.8
20260507233005 54 272 3.0 11.0 0.00 0.00 0.00 41 1011.8
20260507231504 54 271 3.0 9.0 0.00 0.00 0.00 41 1011.8
20260507230005 54 291 5.0 14.0 0.00 0.00 0.00 40 1011.9
20260507224505 54 297 5.0 18.0 0.00 0.00 0.00 38 1011.9
20260507223005 55 297 4.0 14.0 0.00 0.00 0.00 38 1011.9
20260507221504 56 287 5.0 14.0 0.00 0.00 0.00 37 1011.9
20260507220005 55 286 4.0 15.0 0.00 0.00 0.00 47 1012.0
20260507213005 54 298 4.0 12.0 0.00 0.00 0.00 50 1011.6
20260507204504 54 318 3.0 10.0 0.00 0.00 0.00 52 1011.2
20260507200005 57 309 3.0 9.0 0.00 0.00 0.00 47 1010.9
20260507194504 56 302 3.0 13.0 0.00 0.00 0.00 47 1011.1
20260507193005 54 342 3.0 8.0 0.00 0.00 0.00 48 1011.3
20260507191504 54 339 4.0 13.0 0.00 0.00 0.00 46 1011.3
20260507184504 55 304 3.0 13.0 0.00 0.00 0.00 48 1011.4
20260507183005 55 300 3.0 8.0 0.00 0.00 0.00 51 1011.4
20260507181504 55 300 3.0 8.0 0.00 0.00 0.00 49 1011.4
20260507180004 55 322 2.0 9.0 0.00 0.00 0.00 51 1011.4
20260507174504 55 282 3.0 10.0 0.00 0.00 0.00 50 1011.5
20260507171504 55 281 4.0 10.0 0.00 0.00 0.00 47 1011.5
20260507164505 56 275 4.0 11.0 0.00 0.00 0.00 44 1011.6
20260507163006 58 241 3.0 12.0 0.00 0.00 0.00 42 1011.6
20260507161503 57 301 3.0 9.0 0.00 0.00 0.00 41 1011.7
20260507160005 58 271 2.0 8.0 0.00 0.00 0.00 41 1011.7
20260507153005 57 224 3.0 10.0 0.00 0.00 0.00 42 1011.9
20260507151504 57 220 2.0 7.0 0.00 0.00 0.00 44 1012.0
20260507150005 55 272 2.0 9.0 0.00 0.00 0.00 48 1012.0
20260507144504 55 281 2.0 9.0 0.00 0.00 0.00 48 1012.0
20260507143004 54 254 2.0 7.0 0.00 0.00 0.00 50 1012.1
20260507141504 52 352 2.0 5.0 0.00 0.00 0.00 55 1012.3
20260507140005 52 267 3.0 8.0 0.00 0.00 0.00 58 1012.4
20260507134504 51 248 2.0 4.0 0.00 0.00 0.00 65 1012.6
20260507133005 50 260 1.0 7.0 0.00 0.00 0.00 68 1012.8
20260507131504 50 275 2.0 6.0 0.00 0.00 0.00 68 1012.7
20260507130005 48 229 1.0 5.0 0.00 0.00 0.00 71 1012.6
20260507124504 48 264 2.0 4.0 0.00 0.00 0.00 72 1012.7
20260507121504 46 228 2.0 6.0 0.00 0.00 0.00 76 1012.7
20260507114504 42 220 1.0 4.0 0.00 0.00 0.00 85 1012.6
20260507111506 39 203 0.0 2.0 0.00 0.00 0.00 93 1012.4
20260507104504 38 183 0.0 1.0 0.00 0.00 0.00 93 1012.3
20260507103005 38 168 0.0 1.0 0.00 0.00 0.00 93 1012.2
20260507101504 38 161 0.0 2.0 0.00 0.00 0.00 93 1012.3
20260507100005 38 113 0.0 1.0 0.00 0.00 0.00 93 1012.2
20260507094504 38 112 0.0 1.0 0.00 0.01 0.00 93 1012.1
20260507091504 37 0 0.0 0.0 0.00 0.05 0.00 93 1012.3
20260507084504 37 111 0.0 1.0 0.00 0.07 0.00 92 1012.3
20260507083005 37 0 0.0 0.0 0.00 0.09 0.00 91 1012.3
20260507081504 37 0 0.0 0.0 0.00 0.12 0.00 91 1012.4
20260507080006 38 0 0.0 0.0 0.00 0.15 0.00 91 1012.5
20260507074504 38 0 0.0 0.0 0.00 0.20 0.00 91 1012.5
20260507071504 39 0 0.0 0.0 0.00 0.29 0.00 89 1012.5
20260507070009 39 111 0.0 2.0 0.00 0.32 0.00 89 1012.6
20260507064503 40 110 0.0 1.0 0.00 0.33 0.00 88 1012.7
20260507060004 41 110 0.0 1.0 0.00 0.41 0.00 85 1013.1
20260507054504 42 0 0.0 0.0 0.00 0.44 0.00 84 1013.2
20260507053005 43 0 0.0 0.0 0.00 0.46 0.00 82 1013.2
20260507051504 43 0 0.0 0.0 0.00 0.48 0.00 81 1013.3
20260507050005 44 110 0.0 1.0 0.00 0.50 0.00 82 1013.4